Back to catalog

STARLINK-34736

AliveCommunicationsSSO
NORAD 64846·PAYLOAD·🇺🇸 United States

Launched Jul 19, 2025 from Vandenberg Space Force Base

Loading…

Next Passes (next 24 hours)

TLE

FreshSource: CelesTrak SupGP

Epoch: Sep 14, 2026, 20:42 UTC

1 64846C 25152E   26257.86298611 -.00003040  00000+0 -94371-4 0  2579
2 64846  97.2842 108.5154 0001643  91.6120 193.0542 15.33434592    13

Track STARLINK-34736 in real time with AllMySat

Download on the App Store